Butte, MT

1:39 PM MDT on July 24, 2017 (GMT -0600)
Mooney

Weather History for KBTM - January, 2013

Change the Weather History Date:

Thursday, January 10, 2013

  Actual Average Record
Temperature  
Mean Temperature 23 °F 19 °F  
Max Temperature 38 °F 32 °F 50 °F (1945)
Min Temperature 7 °F 7 °F -43 °F (1962)
Degree Days  
Heating Degree Days 42 46  
Month to date heating degree days 478 463  
Since 1 July heating degree days 4143 4427  
Cooling Degree Days 0 0  
Month to date cooling degree days 0 0  
Year to date cooling degree days 0 0  
Moisture  
Dew Point 18 °F    
Average Humidity 74    
Maximum Humidity 100    
Minimum Humidity 48    
Precipitation  
Precipitation 0.06 in 0.01 in 0.32 in (1924)
Month to date precipitation 0.06 0.16  
Year to date precipitation 0.06 0.16  
Sea Level Pressure  
Sea Level Pressure 29.58 in    
Wind  
Wind Speed 10 mph (NW)    
Max Wind Speed 23 mph    
Max Gust Speed 30 mph    
Visibility 3 miles    
Events Fog , Snow    
T = Trace of Precipitation, MM = Missing Value Source: NWS Daily Summary

Daily Weather History Graph

Daily Weather History Graph

Search for Another Location

Airport or City:

Trip Planner

Search our weather history database for the weather conditions in past years. The results will help you decide how hot, cold, wet, or windy it might be!

Date:

Astronomy

Jan. 10, 2013 Rise Set
Actual Time 8:10 AM MST 5:05 PM MST
Civil Twilight 7:36 AM MST 5:39 PM MST
Nautical Twilight 6:58 AM MST 6:16 PM MST
Astronomical Twilight 6:22 AM MST 6:52 PM MST
Moon 6:53 AM MST (1/10) 4:18 PM MST (1/10)
Length of Visible Light 10h 03m
Length of Day
8h 55m
Waning Crescent, 2% of the Moon is Illuminated
Jan 10
Waning Crescent
Jan 11
New
Jan 18
First Quarter
Jan 26
Full
Feb 3
Last Quarter

Hourly Weather History & Observations

Time (MST) Temp. Windchill Dew Point Humidity Pressure Visibility Wind Dir Wind Speed Gust Speed Precip Events Conditions
12:53 AM 36.0 °F 33.3 °F 21.0 °F 55% 29.59 in 10.0 mi Variable 3.5 mph - N/A   Overcast
1:53 AM 37.0 °F 31.0 °F 21.0 °F 52% 29.58 in 10.0 mi South 8.1 mph - N/A   Overcast
2:53 AM 35.1 °F 26.9 °F 23.0 °F 61% 29.55 in 10.0 mi SE 11.5 mph - N/A   Overcast
3:53 AM 35.1 °F 25.2 °F 27.0 °F 72% 29.56 in 9.0 mi South 16.1 mph 20.7 mph N/A   Overcast
4:30 AM 33.8 °F 28.6 °F 28.4 °F 81% 29.55 in 2.5 mi WSW 5.8 mph - 0.00 in Snow Light Snow
4:51 AM 30.2 °F 20.8 °F 26.6 °F 86% 29.53 in 1.2 mi NW 11.5 mph - 0.00 in Snow Light Snow
4:53 AM 28.9 °F 19.8 °F 27.0 °F 92% 29.58 in 1.2 mi NW 10.4 mph - 0.00 in Snow Light Snow
5:09 AM 28.4 °F 19.7 °F 26.6 °F 93% 29.54 in 2.0 mi NW 9.2 mph - 0.00 in Snow Light Snow
5:53 AM 27.0 °F 21.6 °F 26.1 °F 96% 29.59 in 3.0 mi North 4.6 mph - 0.00 in Snow Light Snow
6:07 AM 28.4 °F 23.3 °F 26.6 °F 93% 29.54 in 6.0 mi NNE 4.6 mph - 0.00 in   Overcast
6:25 AM 28.4 °F - 24.8 °F 86% 29.54 in 6.0 mi Calm Calm - 0.00 in   Overcast
6:33 AM 28.4 °F - 24.8 °F 86% 29.54 in 6.0 mi Calm Calm - 0.00 in Snow Light Snow
6:41 AM 28.4 °F - 24.8 °F 86% 29.54 in 2.5 mi Calm Calm - 0.00 in Snow Light Snow
6:50 AM 28.4 °F 24.6 °F 24.8 °F 86% 29.54 in 1.5 mi Variable 3.5 mph - 0.00 in Snow Light Snow
6:53 AM 28.0 °F - 25.0 °F 88% 29.60 in 1.8 mi Calm Calm - 0.00 in Snow Light Snow
7:23 AM 26.6 °F 22.6 °F 24.8 °F 93% 29.54 in 2.5 mi NW 3.5 mph - N/A Snow Light Snow
7:53 AM 27.0 °F - 25.0 °F 92% 29.59 in 3.0 mi Calm Calm - 0.00 in Snow Light Snow
7:58 AM 26.6 °F - 24.8 °F 93% 29.54 in 2.5 mi Calm Calm - 0.00 in Snow Light Snow
8:05 AM 26.6 °F 21.2 °F 24.8 °F 93% 29.54 in 3.0 mi WNW 4.6 mph - 0.00 in Snow Light Snow
8:53 AM 27.0 °F - 21.9 °F 81% 29.59 in 2.5 mi Calm Calm - 0.00 in Snow Light Snow
9:01 AM 26.6 °F 22.6 °F 23.0 °F 86% 29.54 in 1.0 mi Variable 3.5 mph - 0.01 in Snow Light Snow
9:10 AM 26.6 °F 21.2 °F 23.0 °F 86% 29.54 in 0.8 mi WNW 4.6 mph - 0.01 in Snow Light Snow
9:19 AM 26.6 °F 20.0 °F 23.0 °F 86% 29.54 in 0.5 mi WNW 5.8 mph - 0.01 in Fog , Snow Light Snow
9:26 AM 26.6 °F 20.0 °F 23.0 °F 86% 29.54 in 0.5 mi WNW 5.8 mph - 0.02 in Fog , Snow Light Snow
9:33 AM 26.6 °F 18.2 °F 23.0 °F 86% 29.54 in 0.5 mi WNW 8.1 mph - 0.02 in Fog , Snow Light Snow
9:48 AM 26.6 °F 16.8 °F 24.8 °F 93% 29.53 in 0.8 mi WNW 10.4 mph - N/A Snow Light Snow
9:53 AM 26.1 °F 16.8 °F 24.1 °F 92% 29.59 in 0.8 mi West 9.2 mph - 0.02 in Snow Light Snow
10:09 AM 26.6 °F 17.5 °F 24.8 °F 93% 29.53 in 0.8 mi WNW 9.2 mph - 0.01 in Snow Light Snow
10:18 AM 26.6 °F 17.5 °F 23.0 °F 86% 29.52 in 1.5 mi WNW 9.2 mph - 0.01 in Snow Light Snow
10:37 AM 26.6 °F 16.8 °F 23.0 °F 86% 29.52 in 2.0 mi WNW 10.4 mph - 0.01 in Snow Light Snow
10:53 AM 27.0 °F 17.3 °F 23.0 °F 85% 29.57 in 1.8 mi WNW 10.4 mph - 0.01 in Snow Light Snow
11:25 AM 26.6 °F 16.8 °F 23.0 °F 86% 29.52 in 0.8 mi West 10.4 mph - 0.00 in Snow Light Snow
11:43 AM 24.8 °F 14.6 °F 21.2 °F 86% 29.51 in 0.2 mi West 10.4 mph - 0.01 in Fog , Snow Snow
11:53 AM 24.1 °F 13.7 °F 21.9 °F 91% 29.57 in 0.2 mi WNW 10.4 mph - 0.01 in Fog , Snow Snow
12:19 PM 24.8 °F 16.1 °F 21.2 °F 86% 29.51 in - NW 8.1 mph - N/A Snow Light Snow
12:31 PM 23.0 °F 13.1 °F 19.4 °F 86% 29.50 in - WNW 9.2 mph - 0.01 in Snow Light Snow
12:53 PM 21.9 °F 11.7 °F 19.0 °F 89% 29.57 in - NW 9.2 mph - 0.01 in Snow Light Snow
1:12 PM 21.2 °F 12.6 °F 17.6 °F 86% 29.49 in - North 6.9 mph - 0.00 in Snow Light Snow
1:21 PM 21.2 °F 11.7 °F 17.6 °F 86% 29.49 in 0.8 mi NNW 8.1 mph - 0.00 in Snow Light Snow
1:53 PM 21.0 °F 12.4 °F 16.0 °F 81% 29.57 in 1.0 mi Variable 6.9 mph - 0.00 in Snow Light Snow
2:10 PM 19.4 °F 6.0 °F 12.2 °F 74% 29.50 in 0.8 mi North 13.8 mph 27.6 mph 0.00 in Snow Light Snow
2:19 PM 19.4 °F 6.0 °F 12.2 °F 74% 29.51 in 0.5 mi North 13.8 mph 23.0 mph 0.00 in Snow Snow
2:53 PM 18.0 °F 4.8 °F 15.1 °F 88% 29.62 in 0.2 mi NNW 12.7 mph - 0.00 in Fog , Snow Snow
3:08 PM 17.6 °F 6.4 °F 14.0 °F 86% 29.54 in 0.2 mi NW 9.2 mph - 0.01 in Fog , Snow Snow
3:53 PM 16.0 °F 2.9 °F 12.0 °F 84% 29.65 in 0.5 mi NNW 11.5 mph - 0.01 in Fog , Snow Snow
4:14 PM 15.8 °F 0.3 °F 10.4 °F 79% 29.55 in 0.8 mi North 16.1 mph 23.0 mph 0.00 in Snow Light Snow
4:30 PM 15.8 °F -0.6 °F 8.6 °F 73% 29.56 in 1.2 mi NNW 18.4 mph 24.2 mph 0.00 in Snow Light Snow
4:49 PM 15.8 °F 0.9 °F 8.6 °F 73% 29.57 in 2.0 mi NNW 15.0 mph 23.0 mph 0.00 in Snow Light Snow
4:53 PM 15.1 °F 1.1 °F 8.1 °F 74% 29.70 in 2.5 mi North 12.7 mph 23.0 mph 0.00 in Snow Light Snow
5:15 PM 14.0 °F -1.4 °F 6.8 °F 73% 29.57 in 3.0 mi NNW 15.0 mph - 0.00 in Snow Light Snow
5:53 PM 14.0 °F -0.8 °F 7.0 °F 74% 29.72 in 7.0 mi NNW 13.8 mph - 0.00 in   Overcast
6:53 PM 12.9 °F -1.6 °F 3.9 °F 67% 29.74 in 6.0 mi North 12.7 mph 23.0 mph N/A   Overcast
7:53 PM 12.0 °F -2.7 °F 3.0 °F 67% 29.77 in 9.0 mi NNW 12.7 mph 21.9 mph 0.00 in   Overcast
8:16 PM 10.4 °F -6.0 °F 3.2 °F 73% 29.62 in 1.8 mi North 15.0 mph 23.0 mph 0.00 in Snow Light Snow
8:34 PM 10.4 °F -7.2 °F 3.2 °F 73% 29.62 in 2.0 mi North 17.3 mph 27.6 mph 0.00 in Snow Light Snow
8:53 PM 10.0 °F -6.5 °F 1.9 °F 70% 29.79 in 4.0 mi North 15.0 mph 23.0 mph 0.00 in Snow Light Snow
9:53 PM 9.0 °F -5.1 °F -0.0 °F 67% 29.80 in 10.0 mi NNW 10.4 mph - 0.00 in   Scattered Clouds
10:53 PM 8.1 °F -5.3 °F -2.0 °F 64% 29.82 in 10.0 mi NNW 9.2 mph 18.4 mph N/A   Clear
11:53 PM 7.0 °F -3.3 °F -2.9 °F 64% 29.85 in 10.0 mi NW 5.8 mph - N/A   Mostly Cloudy